Flag for U.S.A. Weather past 2 weeks in Charleston, South Carolina, U.S.A.

Now
43 °F

Partly sunny.


Feels Like: 40 °F
Forecast: 38 / 56 °F
Wind: 5 mph from Northwest

Location: Charleston Air Force Base Reporting Station

Current Time: Jan 25, 2015 at 9:25:45 AM

Latest Report: Jan 25, 2015 at 8:56 AM


Visibility: 10 mi

Pressure: 30.01 "Hg

Humidity: 65%

Dew point: 32 °F

Location of CharlestonLocation

Historic Weather in Charleston — Graph

°F

Charleston temperature yesterday

Maximum temperature yesterday: 65 °F (at 3:56 AM)
Minimum temperature yesterday: 43 °F (at 10:56 PM)
Average temperature yesterday: 54 °F

Past Weeks' High & Low Weather Summary

 TemperatureHumidityPressure
High71 °F (Jan 21, 1:56 PM)100% (Jan 12, 5:00 AM)30.57 "Hg (Jan 12, 5:00 AM)
Low33 °F (Jan 17, 5:56 AM)20% (Jan 10, 1:56 PM)29.55 "Hg (Jan 24, 4:56 AM)
Average50 °F74%30.15 "Hg
* Reported Jan 10 7:56 AM — Jan 25 7:56 AM, Charleston, Weather by CustomWeather, © 2014

Note: Actual official high and low records may vary slightly from our data, if they occured in-between our weather recording intervals... More about our weather records

Advertising

Charleston weather history for previous 24 hours

 ConditionsComfort  
Time TempWeatherWind HumidityBarometerVisibility
7:56 AM
Jan 25
37 °FPassing clouds.No wind79%30.02 "Hg10 mi
6:56 AM34 °FClear.3 mph82%30.01 "Hg10 mi
5:56 AM36 °FClear.3 mph79%29.96 "Hg10 mi
4:56 AM39 °FClear.6 mph70%29.96 "Hg10 mi
3:56 AM38 °FClear.5 mph76%29.95 "Hg10 mi
2:56 AM39 °FClear.5 mph73%29.94 "Hg10 mi
1:56 AM41 °FClear.6 mph67%29.93 "Hg10 mi
12:56 AM40 °FClear.5 mph70%29.93 "Hg10 mi
11:56 PM
Jan 24
43 °FClear.6 mph65%29.94 "Hg10 mi
10:56 PM43 °FClear.6 mph68%29.92 "Hg10 mi
9:56 PM45 °FClear.7 mph63%29.90 "Hg10 mi
8:56 PM47 °FClear.9 mph64%29.88 "Hg10 mi
7:56 PM47 °FClear.5 mph64%29.87 "Hg10 mi
6:56 PM50 °FClear.7 mph59%29.84 "Hg10 mi
5:56 PM54 °FClear.8 mph55%29.80 "Hg10 mi
4:56 PM56 °FPassing clouds.9 mph55%29.78 "Hg10 mi
3:56 PM54 °FScattered clouds.13 mph62%29.76 "Hg10 mi
2:56 PM54 °FScattered clouds.16 mph64%29.74 "Hg10 mi
1:56 PM53 °FPartly sunny.12 mph69%29.72 "Hg10 mi
12:56 PM50 °FMostly cloudy.17 mph74%29.73 "Hg10 mi
11:56 AM49 °FPartly sunny.17 mph77%29.73 "Hg10 mi
10:56 AM50 °FPartly sunny.12 mph80%29.71 "Hg10 mi
9:56 AM49 °FMostly cloudy.12 mph86%29.70 "Hg10 mi
Weather by CustomWeather, © 2014

See weather overviewHow to use our weather pages